Tracking 29493 objects as of 8-Sep-2024
HD Live streaming from Space Station
objects crossing your sky now

METEOR 2-8 DEB

Track METEOR 2-8 DEB now!
10-day predictions


NORAD ID: 36355
Int'l Code: 1982-025AR
Perigee: 802.7 km
Apogee: 830.0 km
Inclination: 82.5 °
Period: 101.1 minutes
Semi major axis: 7187 km
RCS: 0.0127 m2 (small)
Launch date: March 25, 1982
Source: Commonwealth of Independent States (former USSR) (CIS)
Launch site: PLESETSK MISSILE AND SPACE COMPLEX (PKMTR)

Note: This is SATELLITE DEBRIS
Your satellite tracking list
Your tracking list is empty




NASA's NSSDC Master Catalog

Two Line Element Set (TLE):
1 36355U 82025AR  24251.59813583  .00023982  00000-0  10238-1 0  9994
2 36355  82.5196   5.0316 0019021 184.7501 175.3504 14.24790281119429
Source of the keplerian elements: AFSPC